Regional Weather Roundup
Issued by NWS Lake Charles, LA

Home | Current Version | Previous Version | Text Only | Print | Product List | Glossary On
Versions: 1 2 3 4 5 6 7 8 9 10 11 12 13 14 15 16 17 18 19 20 21 22 23 24 25 26 27 28
000
ASUS44 KLCH 271810
RWRLCH
REGIONAL WEATHER ROUNDUP
NATIONAL WEATHER SERVICE LAKE CHARLES LA
100 PM CDT THU APR 27 2017

Note: "fair" indicates few or no clouds below 12,000 feet with no
significant weather and/or obstructions to visibility.


ACROSS SOUTHEAST TEXAS

CITY           SKY/WX    TMP DP  RH WIND       PRES   REMARKS
BEAUMONT       SUNNY     75  51  43 SE7       29.82F
BEAUMONT CITY  FAIR      74  51  43 CALM      29.83F
ORANGE         CLEAR     73  55  53 NE5       29.84F
JASPER           N/A     71  51  49 CALM      29.85F
$$

ACROSS CENTRAL LOUISIANA

CITY           SKY/WX    TMP DP  RH WIND       PRES   REMARKS
LEESVILLE      SUNNY     71  52  50 SE7       29.82F
FULLERTON      FAIR      73  52  47 VRB3      29.80F
ALEXANDRIA INT SUNNY     71  50  47 E6        29.82F
ESLER FIELD    SUNNY     71  52  50 VRB5      29.83F
DERIDDER       FAIR      70  51  50 E3        29.85F
OAKDALE        CLEAR     71  54  54 E5        29.83F
OPELOUSAS      FAIR      70  55  58 NE3       29.84F
$$

ACROSS SOUTHWEST AND SOUTH CENTRAL LOUISIANA

CITY           SKY/WX    TMP DP  RH WIND       PRES   REMARKS
SULPHUR        CLEAR     73  55  53 NE7       29.83F
LAKE CHARLES   SUNNY     71  54  54 E9        29.82F
CHENNAULT INT  SUNNY     72  55  56 E8G18     29.83F
CAMERON PHI    CLEAR     73  55  53 E7G13     29.82S
DEQUINCY       FAIR      70  51  51 CALM      29.83F
JENNINGS       FAIR      70  55  60 NE7       29.84F
LAFAYETTE      SUNNY     76  57  51 VRB6      29.83F
NEW IBERIA     SUNNY     76  57  51 N8        29.83F
ABBEVILLE      FAIR      73  57  56 CALM      29.83F
PATTERSON      SUNNY     75  60  59 N5        29.83F
SALT POINT     NOT AVBL
$$

SELECTED SITES ACROSS THE REGION

CITY           SKY/WX    TMP DP  RH WIND       PRES   REMARKS
HOUSTON BUSH   MOSUNNY   75  51  43 E7        29.81F
HOUSTON HOBBY  MOSUNNY   73  51  46 E10       29.80F
GALVESTON      SUNNY     75  59  57 E12       29.83F
COLLEGE STAT   SUNNY     75  48  38 VRB7      29.79F
CONROE         SUNNY     74  49  41 SE5       29.81F
HUNTSVILLE     SUNNY     73  45  36 E5        29.81F
LUFKIN         SUNNY     71  50  47 E7        29.82F
SHREVEPORT     SUNNY     69  49  48 VRB3      29.83F
MONROE         SUNNY     67  49  52 E9        29.85F
NATCHEZ MS     MOSUNNY   65  53  65 VRB3      29.87F
BATON ROUGE    SUNNY     73  56  54 VRB5      29.84F
N.O. INTL ARPT SUNNY     73  60  63 VRB5      29.83F
SLIDELL        SUNNY     79  59  50 VRB5      29.82F
$$

MARINE REPORTS

STATION/POSITION TIME  SKY/WX   TEMP    WIND        PRES    VSBY
                                AIR SEA DIR/SP/G
                 (UTC)          (F)     (DEG/KT/KT) (MB)    (MI)
BUOY 30 S HIGH I 1750            67 75   80/ 14/ 17 1009.6F
WVE H/P(F/S)=  3/ 7

SEA RIM ST PARK  1800            68     120/ 11/ 13 1010.4F
PORT ARTHUR      1742            68 74   80/  4/  9 1010.3F
SABINE PASS N    1742            68 76  130/ 11/ 13 1011.3F
TEXAS POINT      NOT AVBL
CALCASIEU PASS   1742            69 75   70/  8/ 11   N/A
LK CHARLES BEACH 1742            71 72              1010.5F
MARSH ISLAND     1700            66                   N/A
FRESH WATER LOCK 1742            70 75   60/  6/ 10 1009.8F
AMERADA PASS     1742            72 72  320/  3/  5 1009.8F
$$




USA.gov is the U.S. government's official web portal to all federal, state and local government web resources and services.